STARLINK-4361 (53493 NORAD) Tracking and Keplerian Element Data

This shows tracking and keplerian element data for the satellite.

Feedback or suggestion? Click here.




ElementValue
Catalog53493
NameSTARLINK-4361
Epoch Orbit1552
Epoch Day325.27512753
Epoch Year2022
RAAN84.3397
Inclination97.6558
Eccentricity0.000316
Argument of Perigee15.6544
Mean Anonmoly344.4778
Mean Motion15.01257786
Decay Rate-6E-07
L11 53493U 22099AE 22325.27512753 -.00000060 00000+0 -32921-7 0 9993
L22 53493 97.6558 84.3397 0003160 15.6544 344.4778 15.01257786 15527



Live tracking and technical data element details for STARLINK-4361 (NORAD 53493). STARLINK-4361 can be tracked NOW for your location showing map with azimuth and elevation plus other details from your city location.







IsCatalogInMostPopularTable: catalog: 53493, numindb: 3
Update: records affected: 1



GetName: 53493 STARLINK-4361

Hit Count: updated at: Thu, 08 Dec 2022 09:19:56 GMT